Location: Melbourne
(37.8666°S, 145.1333°E)
Time: 11:00:24
(UTC+11:00)

Amateur Radio Satellites - All Passes

Search period start: 29 November 2014 10:30
Search period end: 30 November 2014 10:30
Location: Melbourne, 37.8666°S, 145.1333°E

Satellite Date Start Highest point End Downlink Frequencies (MHz)
Time Altitude Azimuth
AISAT 29 Nov 10:30:48 10:34:49 34° 110° (ESE) 10:38:55 437.250
CUBEBUG 1 29 Nov 10:35:04 10:37:03 13° 116° (ESE) 10:39:02 437.445
COMPASS 1 29 Nov 10:38:29 10:41:55 23° 275° (W) 10:45:22 437.405
RS-15 29 Nov 10:39:36 10:47:42 19° 165° (SSE) 10:55:35 29.354- 29.394
CANX-2 29 Nov 10:43:39 10:46:02 14° 272° (W) 10:48:26 2200.000
ISS 29 Nov 10:44:36 10:47:38 32° 47° (NE) 10:50:42 145.825
HUMSAT D 29 Nov 10:48:16 10:52:29 49° 106° (ESE) 10:56:47 437.325/437.525
TIGRISAT 29 Nov 10:51:19 10:53:13 12° 90° (E) 10:55:05 435.000
GOMX 1 29 Nov 10:54:17 10:57:58 21° 271° (W) 11:01:52 467.674
DX 1 29 Nov 10:56:20 11:00:21 36° 278° (W) 11:04:26 434.975-435.025
UWE-3 29 Nov 10:58:18 11:02:55 64° 281° (W) 11:07:40 435.000/436.395/437.385
CUBEBUG 2 29 Nov 11:04:21 11:08:53 48° 279° (W) 11:13:35 437.445
UNISAT 6 29 Nov 11:05:31 11:08:44 19° 87° (E) 11:11:52 437.425
HO-68 29 Nov 11:15:00 11:18:56 15° 271° (W) 11:22:53 435.675
POLYITAN 1 29 Nov 11:18:41 11:21:39 18° 87° (E) 11:24:34 437.675
QB50P2 29 Nov 11:19:28 11:22:27 18° 87° (E) 11:25:24 145.880/145.840
DUCHIFAT 1 29 Nov 11:23:21 11:26:32 19° 86° (E) 11:29:39 145.980
ZACube-1 29 Nov 11:27:16 11:31:29 36° 277° (W) 11:35:48 437.345
TISAT 1 29 Nov 11:28:14 11:29:55 12° 116° (ESE) 11:31:37 437.305
ANTELSAT 29 Nov 11:33:49 11:38:06 39° 82° (E) 11:42:14 437.575/2403.000
VELOX 1 29 Nov 11:38:58 11:43:10 41° 279° (W) 11:47:27 145.980
NANOSAT C BR1 29 Nov 11:42:40 11:46:37 32° 83° (E) 11:50:30 145.865
SPROUT 29 Nov 11:46:08 11:48:58 17° 114° (ESE) 11:51:49 437.525
CUSAT 1 29 Nov 11:47:18 11:51:58 23° 115° (ESE) 11:55:41 437.405
ESTCUBE 1 29 Nov 11:47:53 11:52:24 88° 105° (ESE) 11:56:59 437.505/2401.250
BUGSAT 1 29 Nov 11:47:55 11:51:46 30° 83° (E) 11:55:34 437.445
QB50P1 29 Nov 11:52:50 11:57:01 42° 81° (E) 12:01:07 145.935-145.965
50 SAT 29 Nov 11:52:52 11:56:42 34° 277° (W) 12:00:35 437.505
CINEMA 3 29 Nov 11:53:39 11:54:46 11° 268° (W) 11:55:53 145.822/145.860
JUGNU 29 Nov 11:55:59 11:58:01 12° 7° (N) 12:00:02 437.505
MaSat-1 29 Nov 12:01:49 12:03:53 14° 127° (SE) 12:05:55 437.345
FUNcube-1 29 Nov 12:03:11 12:05:58 16° 272° (W) 12:08:48 145.935
AISAT 29 Nov 12:08:13 12:11:31 20° 274° (W) 12:14:52 437.250
CUBEBUG 1 29 Nov 12:08:38 12:12:54 55° 280° (W) 12:17:16 437.445
POPSAT HIP 1 29 Nov 12:17:53 12:22:19 85° 77° (ENE) 12:26:39 437.405
ISS 29 Nov 12:21:18 12:24:17 28° 210° (SSW) 12:27:18 145.825
DANDE 29 Nov 12:25:33 12:31:42 47° 107° (ESE) 12:36:11 436.750
TIGRISAT 29 Nov 12:25:51 12:30:20 55° 254° (WSW) 12:34:39 435.000
HUMSAT D 29 Nov 12:26:27 12:28:34 13° 271° (W) 12:30:43 437.325/437.525
BEESAT 29 Nov 12:40:54 12:42:58 13° 118° (ESE) 12:45:02 436.000
UNISAT 6 29 Nov 12:41:27 12:45:39 36° 251° (WSW) 12:49:43 437.425
AUBIESAT-1 29 Nov 12:45:44 12:48:30 18° 115° (ESE) 12:51:08 437.475
M-CUBED/EXP-1 PRIME 29 Nov 12:52:36 12:55:54 24° 114° (ESE) 12:59:02 437.505
RS-15 29 Nov 12:52:58 13:04:29 47° 133° (SE) 13:15:22 29.354- 29.394
POLYITAN 1 29 Nov 12:53:39 12:57:43 37° 251° (WSW) 13:01:43 437.675
QB50P2 29 Nov 12:54:27 12:58:29 36° 251° (WSW) 13:02:27 145.880/145.840
DUCHIFAT 1 29 Nov 12:58:30 13:02:27 33° 251° (WSW) 13:06:21 145.980
TISAT 1 29 Nov 13:01:03 13:05:13 57° 280° (W) 13:09:30 437.305
ANTELSAT 29 Nov 13:11:25 13:14:34 19° 246° (WSW) 13:17:39 437.575/2403.000
NANOSAT C BR1 29 Nov 13:19:01 13:22:16 21° 248° (WSW) 13:25:30 145.865
SPROUT 29 Nov 13:20:39 13:24:42 39° 278° (W) 13:28:51 437.525
BUGSAT 1 29 Nov 13:23:46 13:27:04 22° 248° (WSW) 13:30:22 437.445
QB50P1 29 Nov 13:29:49 13:32:32 16° 246° (WSW) 13:35:13 145.935-145.965
CUSAT 1 29 Nov 13:30:10 13:35:21 34° 267° (W) 13:39:18 437.405
MaSat-1 29 Nov 13:34:54 13:38:43 48° 290° (WNW) 13:42:19 437.345
Oscar 19 29 Nov 13:34:56 13:37:04 12° 90° (E) 13:39:10 437.125/150
ITUPSAT 1 29 Nov 13:35:33 13:40:06 45° 108° (ESE) 13:44:42 437.325
YUBILEINY 29 Nov 13:42:35 13:47:02 15° 103° (ESE) 13:51:31 435.215
JUGNU 29 Nov 13:43:43 13:46:10 13° 356° (N) 13:48:35 437.505
SWISSCUBE 29 Nov 13:45:04 13:49:47 63° 106° (ESE) 13:54:33 437.505
KKS-1 29 Nov 13:54:41 13:57:08 15° 116° (ESE) 13:59:35 437.445
SRMSAT 29 Nov 14:00:13 14:02:41 13° 3° (N) 14:05:08 437.500
DANDE 29 Nov 14:10:28 14:14:20 18° 260° (W) 14:17:35 436.750
BEESAT 29 Nov 14:15:26 14:20:11 68° 282° (WNW) 14:25:01 436.000
AUBIESAT-1 29 Nov 14:19:38 14:23:21 32° 284° (WNW) 14:26:50 437.475
M-CUBED/EXP-1 PRIME 29 Nov 14:27:30 14:30:53 24° 282° (WNW) 14:34:05 437.505
ITAMSAT 1 29 Nov 14:33:32 14:37:09 18° 87° (E) 14:40:44 435.822/435.867
STARS 29 Nov 14:42:10 14:46:06 31° 110° (ESE) 14:50:05 437.465
RS-15 29 Nov 15:05:46 15:17:06 54° 290° (WNW) 15:27:52 29.354- 29.394
Oscar 19 29 Nov 15:11:41 15:16:53 70° 254° (WSW) 15:21:59 437.125/150
ITUPSAT 1 29 Nov 15:15:02 15:18:11 17° 273° (W) 15:21:22 437.325
Gurwin Techsat 1B 29 Nov 15:23:00 15:27:48 32° 83° (E) 15:32:33 435.225
SWISSCUBE 29 Nov 15:26:09 15:28:02 12° 271° (W) 15:29:56 437.505
KKS-1 29 Nov 15:28:54 15:33:17 52° 280° (W) 15:37:45 437.445
YUBILEINY 29 Nov 15:33:42 15:42:25 87° 85° (E) 15:51:17 435.215
SRMSAT 29 Nov 15:49:01 15:50:59 12° 353° (N) 15:52:56 437.500
SO-50 29 Nov 15:49:37 15:54:22 63° 62° (ENE) 15:59:02 436.795
PCSat 29 Nov 16:09:59 16:13:46 19° 132° (SE) 16:17:31 145.827
ITAMSAT 1 29 Nov 16:11:47 16:16:53 50° 252° (WSW) 16:21:56 435.822/435.867
STARS 29 Nov 16:19:05 16:22:35 22° 275° (W) 16:26:07 437.465
AO-7 29 Nov 16:23:42 16:30:04 24° 86° (E) 16:36:21 29.400- 29.500
BEESAT 3 29 Nov 16:29:56 16:32:37 17° 132° (SE) 16:35:17 437.485
HORYU 2 29 Nov 16:40:48 16:45:22 86° 77° (ENE) 16:49:50 437.375
BEESAT 2 29 Nov 16:47:39 16:50:53 23° 129° (SE) 16:54:05 435.950
MOZHAYETS 4 29 Nov 16:56:27 17:00:37 34° 109° (ESE) 17:04:49
JAS-2 29 Nov 17:01:52 17:04:23 12° 89° (E) 17:06:59 435.910
Gurwin Techsat 1B 29 Nov 17:03:02 17:07:38 30° 248° (WSW) 17:12:13 435.225
ISS 29 Nov 17:14:36 17:17:30 25° 151° (SSE) 17:20:23 145.825
SO-50 29 Nov 17:32:11 17:35:18 17° 225° (SW) 17:38:23 436.795
YUBILEINY 29 Nov 17:34:48 17:40:23 18° 244° (WSW) 17:46:03 435.215
AIST 2 29 Nov 17:36:10 17:39:57 35° 126° (SE) 17:43:43 435.215
PCSat 29 Nov 17:52:16 17:57:40 66° 294° (WNW) 18:03:00 145.827
BEESAT 3 29 Nov 18:07:14 18:11:00 41° 295° (WNW) 18:14:45 437.485
AO-7 29 Nov 18:15:07 18:23:24 69° 249° (WSW) 18:31:36 29.400- 29.500
CUTE-I 29 Nov 18:19:11 18:21:19 12° 90° (E) 18:23:25 437.470
BEESAT 2 29 Nov 18:25:40 18:29:08 29° 293° (WNW) 18:32:36 435.950
O/OREOS (USA 219) 29 Nov 18:30:07 18:34:42 89° 251° (WSW) 18:39:23 437.305
PRISM 29 Nov 18:33:59 18:38:08 73° 105° (ESE) 18:42:20 437.425
MOZHAYETS 4 29 Nov 18:34:19 18:37:53 22° 274° (W) 18:41:28
JAS-2 29 Nov 18:43:40 18:49:54 88° 76° (ENE) 18:56:56 435.910
CUBESAT XI-V 29 Nov 18:46:59 18:51:11 35° 109° (ESE) 18:55:27 437.345
ISS 29 Nov 18:51:03 18:54:13 37° 314° (NW) 18:57:21 145.825
STRAND 1 29 Nov 18:57:58 19:02:52 48° 109° (ESE) 19:07:50 437.568
AIST 1 29 Nov 19:06:48 19:10:46 33° 103° (ESE) 19:14:43
AIST 2 29 Nov 19:15:27 19:18:18 18° 291° (WNW) 19:21:09 435.215
Cubesat XI-IV 29 Nov 19:16:08 19:21:23 47° 81° (E) 19:26:34 437.490
GONETS M04 29 Nov 19:32:32 19:37:44 18° 102° (ESE) 19:42:56
CUTE-I 29 Nov 19:56:27 20:01:54 76° 255° (WSW) 20:07:17 437.470
AO-7 29 Nov 20:10:37 20:14:40 15° 229° (SW) 20:18:42 29.400- 29.500
CUBESAT XI-V 29 Nov 20:25:16 20:28:42 20° 274° (W) 20:32:11 437.345
JAS-2 29 Nov 20:31:08 20:34:20 15° 242° (WSW) 20:37:42 435.910
STRAND 1 29 Nov 20:38:49 20:42:17 18° 273° (W) 20:45:48 437.568
AIST 1 29 Nov 20:45:09 20:48:09 18° 267° (W) 20:51:08
HO-68 29 Nov 20:55:00 20:59:24 17° 89° (E) 21:03:46 435.675
Cubesat XI-IV 29 Nov 20:57:02 21:01:06 22° 245° (WSW) 21:05:09 437.490
GOMX 1 29 Nov 21:20:17 21:23:43 17° 90° (E) 21:27:02 467.674
GONETS M04 29 Nov 21:24:35 21:33:20 84° 263° (W) 21:42:08
CUTE 1.7 + AOD 2 29 Nov 21:28:11 21:31:23 20° 86° (E) 21:34:33 437.475
TIGRISAT 29 Nov 21:49:42 21:50:58 11° 118° (ESE) 21:52:13 435.000
SEEDS 29 Nov 21:56:11 22:00:09 36° 82° (E) 22:04:03 437.485
DOVE 4 29 Nov 21:59:25 22:04:03 30° 86° (E) 22:08:27 437.250
UNISAT 6 29 Nov 22:03:31 22:06:24 16° 115° (ESE) 22:09:18 437.425
BRITE-PL 29 Nov 22:04:29 22:10:13 62° 80° (E) 22:15:41 437.365/2234.400
AAUSAT CUBESAT 2 29 Nov 22:06:01 22:09:54 35° 83° (E) 22:13:44 437.432
UKube-1 29 Nov 22:08:36 22:11:15 16° 87° (E) 22:13:52 .
CINEMA 3 29 Nov 22:10:29 22:14:19 22° 87° (E) 22:18:01 145.822/145.860
POLYITAN 1 29 Nov 22:12:10 22:13:44 12° 117° (ESE) 22:15:18 437.675
QB50P2 29 Nov 22:12:44 22:14:20 12° 116° (ESE) 22:15:56 145.880/145.840
DUCHIFAT 1 29 Nov 22:16:07 22:17:59 13° 116° (ESE) 22:19:52 145.980
Oscar 11 29 Nov 22:16:35 22:20:05 23° 85° (E) 22:23:32 145.826/435.025
FUNcube-1 29 Nov 22:19:18 22:19:46 10° 91° (E) 22:20:15 145.935
COMPASS 1 29 Nov 22:23:31 22:27:46 66° 79° (E) 22:31:56 437.405
CANX-2 29 Nov 22:28:57 22:33:16 70° 256° (WSW) 22:37:29 2200.000
ANTELSAT 29 Nov 22:31:12 22:35:21 31° 110° (ESE) 22:39:32 437.575/2403.000
NANOSAT C BR1 29 Nov 22:34:38 22:37:49 21° 112° (ESE) 22:41:03 145.865
BUGSAT 1 29 Nov 22:37:43 22:40:26 17° 113° (ESE) 22:43:11 437.445
HO-68 29 Nov 22:40:31 22:47:47 80° 252° (WSW) 22:54:58 435.675
QB50P1 29 Nov 22:44:34 22:48:09 26° 111° (ESE) 22:51:48 145.935-145.965
DX 1 29 Nov 22:46:24 22:50:40 43° 81° (E) 22:54:52 434.975-435.025
UWE-3 29 Nov 22:51:08 22:55:14 30° 84° (E) 22:59:10 435.000/436.395/437.385
GOMX 1 29 Nov 22:56:45 23:02:12 59° 254° (WSW) 23:07:23 467.674
CUBEBUG 2 29 Nov 22:57:59 23:02:29 42° 82° (E) 23:06:46 437.445
CUTE 1.7 + AOD 2 29 Nov 23:03:33 23:07:20 30° 251° (WSW) 23:11:04 437.475
POPSAT HIP 1 29 Nov 23:09:11 23:13:20 50° 107° (ESE) 23:17:34 437.405
ZACube-1 29 Nov 23:18:03 23:22:31 51° 81° (E) 23:26:48 437.345
TIGRISAT 29 Nov 23:22:15 23:27:00 79° 282° (WNW) 23:31:49 435.000
GONETS M04 29 Nov 23:26:39 23:31:30 16° 243° (WSW) 23:36:24
DELFI C3 29 Nov 23:28:44 23:32:48 57° 255° (WSW) 23:36:48 145.870
VELOX 1 29 Nov 23:31:36 23:35:57 42° 81° (E) 23:40:14 145.980
SEEDS 29 Nov 23:32:51 23:35:41 18° 247° (WSW) 23:38:29 437.485
50 SAT 29 Nov 23:35:37 23:39:33 37° 82° (E) 23:43:23 437.505
DOVE 4 29 Nov 23:37:03 23:41:43 31° 249° (WSW) 23:46:11 437.250
UNISAT 6 29 Nov 23:38:05 23:42:43 52° 280° (W) 23:47:25 437.425
AAUSAT CUBESAT 2 29 Nov 23:42:26 23:45:18 18° 247° (WSW) 23:48:08 437.432
UKube-1 29 Nov 23:43:24 23:47:36 43° 252° (WSW) 23:51:45 .
ESTCUBE 1 29 Nov 23:43:29 23:47:00 21° 86° (E) 23:50:29 437.505/2401.250
BRITE-PL 29 Nov 23:44:15 23:48:05 19° 243° (WSW) 23:51:51 437.365/2234.400
POLYITAN 1 29 Nov 23:44:50 23:49:06 61° 281° (W) 23:53:28 437.675
QB50P2 29 Nov 23:45:26 23:49:41 60° 281° (W) 23:54:01 145.880/145.840
CINEMA 3 29 Nov 23:47:01 23:51:36 37° 250° (WSW) 23:55:59 145.822/145.860
DUCHIFAT 1 29 Nov 23:49:08 23:53:20 55° 280° (W) 23:57:38 145.980
FUNcube-1 29 Nov 23:52:03 23:56:36 66° 255° (WSW) 00:00:58 145.935
Oscar 11 29 Nov 23:52:28 23:56:12 28° 250° (WSW) 23:59:55 145.826/435.025
DANDE 29 Nov 23:53:42 23:57:58 15° 102° (ESE) 00:02:18 436.750
CUBEBUG 1 29 Nov 23:59:53 00:03:53 31° 83° (E) 00:07:51 437.445
AISAT 29 Nov 23:59:55 00:04:32 90° 256° (WSW) 00:09:05 437.250
COMPASS 1 30 Nov 00:02:25 00:02:53 10° 243° (WSW) 00:03:21 437.405
ANTELSAT 30 Nov 00:08:09 00:12:05 26° 275° (W) 00:16:06 437.575/2403.000
NANOSAT C BR1 30 Nov 00:09:38 00:13:29 32° 277° (W) 00:17:23 145.865
HUMSAT D 30 Nov 00:10:40 00:15:01 66° 255° (WSW) 00:19:14 437.325/437.525
BUGSAT 1 30 Nov 00:11:54 00:15:38 35° 278° (W) 00:19:29 437.445
QB50P1 30 Nov 00:20:28 00:23:58 24° 275° (W) 00:27:32 145.935-145.965
SO-50 30 Nov 00:23:24 00:27:29 33° 128° (SE) 00:31:28 436.795
DX 1 30 Nov 00:23:42 00:26:31 17° 245° (WSW) 00:29:20 434.975-435.025
UWE-3 30 Nov 00:27:54 00:31:35 24° 248° (WSW) 00:35:11 435.000/436.395/437.385
HO-68 30 Nov 00:30:43 00:34:20 15° 234° (SW) 00:37:56 435.675
CUBEBUG 2 30 Nov 00:35:36 00:38:47 18° 246° (WSW) 00:41:53 437.445
POPSAT HIP 1 30 Nov 00:47:36 00:49:32 13° 271° (W) 00:51:28 437.405
TISAT 1 30 Nov 00:48:31 00:52:12 26° 84° (E) 00:55:50 437.305
Oscar 19 30 Nov 00:49:41 00:52:58 17° 117° (ESE) 00:56:16 437.125/150
CUSAT 1 30 Nov 00:50:50 00:58:37 46° 90° (E) 01:06:34 437.405
ZACube-1 30 Nov 00:55:55 00:58:23 15° 244° (WSW) 01:00:49 437.345
VELOX 1 30 Nov 01:09:10 01:12:11 18° 246° (WSW) 01:15:11 145.980
SPROUT 30 Nov 01:09:17 01:13:28 40° 82° (E) 01:17:35 437.525
50 SAT 30 Nov 01:11:52 01:14:31 17° 246° (WSW) 01:17:07 437.505
ESTCUBE 1 30 Nov 01:19:48 01:23:55 33° 250° (WSW) 01:27:59 437.505/2401.250
DANDE 30 Nov 01:31:47 01:40:07 75° 85° (E) 01:48:51 436.750
CUBEBUG 1 30 Nov 01:36:33 01:40:04 23° 248° (WSW) 01:43:34 437.445
ITUPSAT 1 30 Nov 01:39:52 01:42:16 14° 88° (E) 01:44:38 437.325
YUBILEINY 30 Nov 01:46:28 01:54:43 40° 106° (ESE) 02:02:52 435.215
SWISSCUBE 30 Nov 01:48:29 01:51:54 19° 86° (E) 01:55:18 437.505
ITAMSAT 1 30 Nov 01:49:46 01:53:52 24° 114° (ESE) 01:58:01 435.822/435.867
VERMONT LUNAR 30 Nov 02:01:43 02:05:13 47° 25° (NNE) 02:08:43 437.305
SO-50 30 Nov 02:04:18 02:07:48 23° 291° (WNW) 02:11:16 436.795
AUBIESAT-1 30 Nov 02:04:25 02:06:32 15° 80° (E) 02:08:40 437.475
PHONESAT 2.4 30 Nov 02:05:45 02:09:10 37° 28° (NNE) 02:12:37 2401.200-2431.200
M-CUBED/EXP-1 PRIME 30 Nov 02:11:48 02:14:30 21° 78° (ENE) 02:17:15 437.505
BEESAT 30 Nov 02:17:57 02:22:24 35° 82° (E) 02:26:47 436.000
TISAT 1 30 Nov 02:24:21 02:27:55 25° 249° (WSW) 02:31:28 437.305
Oscar 19 30 Nov 02:26:39 02:31:47 58° 281° (W) 02:36:59 437.125/150
CUSAT 1 30 Nov 02:33:59 02:41:49 42° 253° (WSW) 02:49:44 437.405
Gurwin Techsat 1B 30 Nov 02:42:13 02:47:14 43° 109° (ESE) 02:52:17 435.225
SPROUT 30 Nov 02:46:19 02:49:12 17° 246° (WSW) 02:52:05 437.525
MaSat-1 30 Nov 02:59:59 03:03:06 44° 71° (ENE) 03:06:32 437.345
O/OREOS (USA 219) 30 Nov 03:04:31 03:06:49 13° 125° (SE) 03:09:05 437.305
RS-15 30 Nov 03:14:38 03:24:44 33° 77° (ENE) 03:34:56 29.354- 29.394
ITUPSAT 1 30 Nov 03:15:43 03:20:30 58° 253° (WSW) 03:25:13 437.325
DANDE 30 Nov 03:17:36 03:24:24 26° 247° (WSW) 03:31:20 436.750
AO-7 30 Nov 03:20:52 03:27:47 30° 121° (ESE) 03:34:44 29.400- 29.500
KKS-1 30 Nov 03:22:17 03:26:28 34° 82° (E) 03:30:34 437.445
SWISSCUBE 30 Nov 03:25:22 03:29:55 41° 251° (WSW) 03:34:25 437.505
ITAMSAT 1 30 Nov 03:28:16 03:33:06 39° 278° (W) 03:38:00 435.822/435.867
HORYU 2 30 Nov 03:37:24 03:41:54 64° 106° (ESE) 03:46:27 437.375
AUBIESAT-1 30 Nov 03:38:44 03:41:35 25° 247° (WSW) 03:44:30 437.475
VERMONT LUNAR 30 Nov 03:40:04 03:43:39 62° 189° (S) 03:47:15 437.305
YUBILEINY 30 Nov 03:43:18 03:51:27 42° 267° (W) 03:59:33 435.215
PHONESAT 2.4 30 Nov 03:44:09 03:47:51 70° 192° (SSW) 03:51:33 2401.200-2431.200
M-CUBED/EXP-1 PRIME 30 Nov 03:47:05 03:49:30 18° 245° (WSW) 03:51:57 437.505
BEESAT 30 Nov 03:56:15 04:00:00 23° 247° (WSW) 04:03:44 436.000
STARS 30 Nov 04:09:56 04:14:30 80° 77° (ENE) 04:18:58 437.465
Gurwin Techsat 1B 30 Nov 04:23:17 04:27:20 22° 274° (W) 04:31:26 435.225
MaSat-1 30 Nov 04:36:39 04:37:55 12° 231° (SW) 04:39:13 437.345
O/OREOS (USA 219) 30 Nov 04:42:04 04:46:41 63° 288° (WNW) 04:51:12 437.305
JAS-2 30 Nov 04:56:06 05:00:27 27° 113° (ESE) 05:04:47 435.910
KKS-1 30 Nov 04:59:26 05:02:51 21° 247° (WSW) 05:06:15 437.445
AO-7 30 Nov 05:11:47 05:20:01 61° 284° (WNW) 05:28:19 29.400- 29.500
HORYU 2 30 Nov 05:17:47 05:18:58 11° 271° (W) 05:20:09 437.375
VERMONT LUNAR 30 Nov 05:18:46 05:22:21 61° 172° (S) 05:25:56 437.305
PHONESAT 2.4 30 Nov 05:23:12 05:26:52 57° 175° (S) 05:30:31 2401.200-2431.200
RS-15 30 Nov 05:24:04 05:36:14 71° 236° (SW) 05:48:35 29.354- 29.394
CUTE-I 30 Nov 05:38:47 05:42:23 19° 117° (ESE) 05:46:01 437.470
PRISM 30 Nov 06:21:16 06:22:50 12° 88° (E) 06:24:25 437.425
MOZHAYETS 4 30 Nov 06:30:11 06:34:49 78° 256° (WSW) 06:39:24
Cubesat XI-IV 30 Nov 06:36:22 06:41:39 64° 107° (ESE) 06:47:00 437.490
JAS-2 30 Nov 06:40:46 06:45:28 32° 277° (W) 06:50:08 435.910
CUBESAT XI-V 30 Nov 06:48:45 06:49:20 10° 91° (E) 06:49:54 437.345
PCSat 30 Nov 06:50:26 06:54:22 21° 74° (ENE) 06:58:19 145.827
VERMONT LUNAR 30 Nov 06:57:18 07:00:49 50° 336° (NNW) 07:04:18 437.305
PHONESAT 2.4 30 Nov 07:02:03 07:05:44 64° 338° (NNW) 07:09:22 2401.200-2431.200
STRAND 1 30 Nov 07:11:20 07:14:59 19° 87° (E) 07:18:35 437.568
CUTE-I 30 Nov 07:16:45 07:21:58 55° 280° (W) 07:27:16 437.470
HO-68 30 Nov 07:25:07 07:27:18 12° 128° (SE) 07:29:29 435.675
AIST 1 30 Nov 07:35:20 07:38:35 21° 92° (E) 07:41:52
AIST 2 30 Nov 07:35:51 07:37:09 11° 72° (ENE) 07:38:27 435.215
GONETS M04 30 Nov 07:37:18 07:45:38 45° 104° (ESE) 07:53:54
RS-15 30 Nov 07:41:51 07:51:28 26° 209° (SSW) 08:01:05 29.354- 29.394
PRISM 30 Nov 07:54:35 07:58:39 50° 253° (WSW) 08:02:42 437.425
BEESAT 3 30 Nov 08:00:19 08:04:15 54° 63° (ENE) 08:08:11 437.485
BEESAT 2 30 Nov 08:18:57 08:22:59 81° 61° (ENE) 08:27:02 435.950
Cubesat XI-IV 30 Nov 08:19:20 08:22:10 14° 271° (W) 08:25:01 437.490
CUTE 1.7 + AOD 2 30 Nov 08:20:59 08:23:02 13° 115° (ESE) 08:25:06 437.475
CUBESAT XI-V 30 Nov 08:22:29 08:27:13 72° 256° (WSW) 08:31:56 437.345
GOMX 1 30 Nov 08:27:16 08:30:03 15° 118° (ESE) 08:32:56 467.674
PCSat 30 Nov 08:32:08 08:37:22 49° 238° (WSW) 08:42:39 145.827
VERMONT LUNAR 30 Nov 08:38:12 08:38:43 10° 322° (NW) 08:39:15 437.305
PHONESAT 2.4 30 Nov 08:41:58 08:44:03 15° 324° (NW) 08:46:08 2401.200-2431.200
SEEDS 30 Nov 08:47:26 08:50:47 22° 111° (ESE) 08:54:09 437.485
STRAND 1 30 Nov 08:49:23 08:54:22 47° 251° (WSW) 08:59:19 437.568
AAUSAT CUBESAT 2 30 Nov 08:56:20 08:59:31 21° 112° (ESE) 09:02:43 437.432
DOVE 4 30 Nov 09:03:24 09:07:26 25° 113° (ESE) 09:11:39 437.250
UKube-1 30 Nov 09:03:41 09:05:12 12° 117° (ESE) 09:06:44 .
HO-68 30 Nov 09:06:34 09:13:37 66° 110° (ESE) 09:20:45 435.675
Oscar 11 30 Nov 09:10:43 09:13:22 16° 114° (ESE) 09:16:02 145.826/435.025
CINEMA 3 30 Nov 09:10:57 09:14:16 18° 115° (ESE) 09:17:41 145.822/145.860
AIST 2 30 Nov 09:11:13 09:15:16 57° 237° (WSW) 09:19:18 435.215
AIST 1 30 Nov 09:12:25 09:16:04 27° 256° (WSW) 09:19:47
BRITE-PL 30 Nov 09:13:16 09:18:03 55° 107° (ESE) 09:23:19 437.365/2234.400
COMPASS 1 30 Nov 09:13:35 09:17:31 36° 108° (ESE) 09:21:29 437.405
CANX-2 30 Nov 09:20:02 09:24:20 67° 105° (ESE) 09:28:42 2200.000
GONETS M04 30 Nov 09:34:27 09:42:13 37° 266° (W) 09:49:59
BEESAT 3 30 Nov 09:40:32 09:42:46 14° 226° (SW) 09:45:01 437.485
DX 1 30 Nov 09:40:39 09:44:29 30° 110° (ESE) 09:48:22 434.975-435.025
UWE-3 30 Nov 09:47:00 09:50:36 22° 113° (ESE) 09:54:16 435.000/436.395/437.385
CUTE 1.7 + AOD 2 30 Nov 09:54:14 09:58:29 53° 280° (W) 10:02:46 437.475
CUBEBUG 2 30 Nov 09:54:33 09:58:41 31° 110° (ESE) 10:02:56 437.445
ISS 30 Nov 09:55:38 09:57:55 17° 51° (NE) 10:00:13 145.825
BEESAT 2 30 Nov 10:00:45 10:01:47 11° 223° (SW) 10:02:49 435.950
GOMX 1 30 Nov 10:02:32 10:07:26 66° 280° (W) 10:12:45 467.674
RS-15 30 Nov 10:02:45 10:10:22 18° 172° (S) 10:17:49 29.354- 29.394
ZACube-1 30 Nov 10:12:22 10:16:31 34° 109° (ESE) 10:20:45 437.345
DELFI C3 30 Nov 10:15:25 10:19:33 70° 104° (ESE) 10:23:44 145.870
SEEDS 30 Nov 10:22:40 10:26:26 29° 276° (W) 10:30:15 437.485
50 SAT 30 Nov 10:23:22 10:26:32 21° 112° (ESE) 10:29:43 437.505
